Home > Weather > Esfahãn > Past weeks

Flag for Iran Past Weather in Esfahãn, Iran — Yesterday and Last 2 Weeks

Now
84 °F

Passing clouds.


Feels Like: 81 °F
Forecast: 73 / 101 °F
Wind: 5 mph from Northeast

Location: Esfahan

Current Time: Jun 30, 2016 at 2:30:20 AM

Latest Report: Jun 30, 2016 at 2:00 AM


Visibility: N/A

Pressure: 29.95 "Hg (25.06 "Hg at 1576m altitude)

Humidity: 15%

Dew Point: 32 °F

Location of EsfahãnLocation

Past Weather in Esfahãn — Graph

°F

Esfahãn Temperature Yesterday

Maximum temperature yesterday: 100 °F (at 4:00 PM)
Minimum temperature yesterday: 61 °F (at 6:30 AM)
Average temperature yesterday: 85 °F

High & Low Weather Summary for the Past Weeks

 TemperatureHumidityPressure
High100 °F (Jun 29, 4:00 PM)37% (Jun 23, 7:00 AM)30.12 "Hg (Jun 23, 7:00 AM)
Low54 °F (Jun 17, 6:00 AM)3% (Jun 19, 4:00 PM)29.74 "Hg (Jun 16, 5:30 PM)
Average81 °F15%29.96 "Hg
* Reported Jun 15 1:30 AM — Jun 30 1:30 AM, Esfahãn, Weather by CustomWeather, © 2016

Note: Actual official high and low records may vary slightly from our data, if they occured in-between our weather recording intervals... More about our weather records

Advertising

Esfahãn Weather History for the Previous 24 Hours

Scroll right to see more
 ConditionsComfort  
Time TempWeatherWind HumidityBarometerVisibility
1:30 AM
Thu, Jun 30
86 °FPassing clouds.5 mph14%29.95 "HgN/A
1:00 AM88 °FPassing clouds.14 mph13%29.92 "HgN/A
12:30 AM90 °FPassing clouds.18 mph14%29.92 "HgN/A
12:00 AM90 °FPassing clouds.9 mph12%29.92 "HgN/A
11:30 PM
Wed, Jun 29
88 °FPassing clouds.7 mph13%29.92 "HgN/A
11:00 PM81 °FPassing clouds.5 mph14%29.89 "HgN/A
10:30 PM86 °FPassing clouds.5 mph12%29.89 "HgN/A
10:00 PM86 °FPassing clouds.5 mph12%29.89 "HgN/A
9:30 PM86 °FPassing clouds.5 mph11%29.89 "HgN/A
9:00 PM86 °FPassing clouds.5 mph11%29.86 "HgN/A
8:30 PM91 °FPassing clouds.5 mph10%29.86 "HgN/A
8:00 PM95 °FPassing clouds.5 mph10%29.86 "HgN/A
7:30 PM97 °FPassing clouds.5 mph9%29.86 "HgN/A
7:00 PM99 °FPassing clouds.7 mph9%29.86 "HgN/A
6:30 PM99 °FPassing clouds.No wind9%29.86 "HgN/A
6:00 PM99 °FPassing clouds.5 mph9%29.86 "HgN/A
5:30 PM99 °FPassing clouds.5 mph10%29.86 "HgN/A
5:00 PM99 °FPassing clouds.5 mph10%29.89 "HgN/A
4:30 PM99 °FPassing clouds.9 mph9%29.89 "HgN/A
4:00 PM100 °FPassing clouds.No wind9%29.89 "HgN/A
3:30 PM97 °FPassing clouds.No wind11%29.92 "HgN/A
3:00 PM99 °FPassing clouds.No wind10%29.92 "HgN/A
2:30 PM99 °FPassing clouds.7 mph10%29.92 "HgN/A
2:00 PM97 °FPassing clouds.7 mph12%29.92 "HgN/A
1:30 PM97 °FPassing clouds.9 mph12%29.95 "HgN/A
1:00 PM95 °FPassing clouds.12 mph12%29.95 "HgN/A
12:30 PM93 °FSunny.9 mph12%29.98 "Hg10 mi
12:00 PM91 °FSunny.5 mph15%29.98 "Hg10 mi
11:30 AM90 °FSunny.9 mph15%29.98 "Hg10 mi
11:00 AM90 °FSunny.5 mph14%29.98 "Hg10 mi
10:30 AM88 °FClear.5 mph16%29.98 "Hg5 mi
10:00 AM86 °FClear.5 mph17%30.01 "Hg5 mi
9:30 AM84 °FClear.No wind18%30.01 "Hg5 mi
9:00 AM81 °FClear.7 mph21%30.01 "Hg4 mi
8:30 AM77 °FHaze.7 mph24%30.01 "Hg4 mi
8:00 AM73 °FHaze.7 mph27%29.98 "Hg3 mi
7:30 AM68 °FHaze.5 mph30%29.98 "Hg3 mi
7:00 AM63 °FPassing clouds.7 mph32%29.98 "HgN/A
6:30 AM61 °FPassing clouds.5 mph34%29.95 "HgN/A
6:00 AM63 °FClear.5 mph30%29.95 "Hg10 mi
5:30 AM66 °FClear.5 mph30%29.95 "Hg10 mi
5:00 AM68 °FClear.7 mph26%29.95 "Hg10 mi
4:30 AM68 °FClear.7 mph28%29.95 "Hg10 mi
4:00 AM68 °FClear.7 mph28%29.95 "Hg10 mi
3:30 AM77 °FClear.5 mph21%29.92 "Hg10 mi
3:00 AM79 °FClear.7 mph20%29.92 "Hg10 mi
2:30 AM79 °FClear.9 mph21%29.92 "Hg10 mi
2:00 AM79 °FClear.12 mph21%29.92 "Hg10 mi
Weather by CustomWeather, © 2016

See weather overviewHow to use our weather pages